Location: Peterborough
(44.3091°N, 78.3197°W)
Time: 05:06:56
(UTC-04:00)

S-56A Canister/Altair - Pass Details

Date: 28 March 2023
Orbit: 639 x 2492 km, 38.9° (Epoch: 08 June)

Event Time Altitude Azimuth Distance (km) Brightness Sun altitude
Rises 18:11:46 0° 216° (SW) 4,376 12.1 14.1°
Reaches altitude 10° 18:14:36 10° 208° (SSW) 3,641 11.6 13.6°
Maximum altitude 18:23:27 39° 144° (SE) 2,641 10.2 12.0°
Drops below altitude 10° 18:35:28 10° 83° (E) 4,943 11.0 9.9°
Sets 18:40:00 0° 77° (ENE) 6,088 11.4 9.1°
